Dubrovnik, Croatia

4:31 AM CET on February 25, 2018 (GMT +0100)
Cilipi

Weather History for LDDU - December, 2017

Change the Weather History Date:

Thursday, December 28, 2017

  Actual Average (LYTV) Record (LYTV)
Temperature  
Mean Temperature 52 °F -  
Max Temperature 55 °F 52 °F 63 °F (2013)
Min Temperature 48 °F 36 °F 26 °F (1998)
Degree Days  
Heating Degree Days 14    
Growing Degree Days 2 (Base 50)    
Moisture  
Dew Point 42 °F    
Average Humidity 67    
Maximum Humidity 100    
Minimum Humidity 36    
Precipitation  
Precipitation 0.12 in - - ()
Sea Level Pressure  
Sea Level Pressure 29.45 in    
Wind  
Wind Speed 16 mph ()    
Max Wind Speed 28 mph    
Max Gust Speed 43 mph    
Visibility 7.3 miles    
Events Rain , Thunderstorm    
Averages and records for this station are not official NWS values.
T = Trace of Precipitation, MM = Missing Value Source: Averaged Metar Reports

Daily Weather History Graph

Daily Weather History Graph

Search for Another Location

Airport or City:

Trip Planner

Search our weather history database for the weather conditions in past years. The results will help you decide how hot, cold, wet, or windy it might be!

Date:

Astronomy

Dec. 28, 2017 Rise Set
Actual Time 7:16 AM CET 4:21 PM CET
Civil Twilight 6:44 AM CET 4:53 PM CET
Nautical Twilight 6:08 AM CET 5:28 PM CET
Astronomical Twilight 5:34 AM CET 6:02 PM CET
Moon 1:01 PM CET (12/28) 1:26 AM CET (12/28)
Length of Visible Light 10h 08m
Length of Day
9h 04m
Waxing Gibbous, 72% of the Moon is Illuminated
Dec 28
Waxing Gibbous
Jan 2
Full
Jan 8
Last Quarter
Jan 17
New
Jan 24
First Quarter

Hourly Weather History & Observations

Time (CET) Temp. Dew Point Humidity Pressure Visibility Wind Dir Wind Speed Gust Speed Precip Events Conditions
12:00 AM 55.4 °F 46.4 °F 72% 29.53 in 6.2 mi SE 26.5 mph 39.1 mph N/A   Mostly Cloudy
12:30 AM 55.4 °F 46.4 °F 72% 29.53 in 6.2 mi SE 27.6 mph 42.6 mph N/A   Mostly Cloudy
1:00 AM 56 °F 48 °F 68% 29.51 in 12 mi SSE 22.4 mph - - Rain , Thunderstorm Heavy Thunderstorms and Rain
1:00 AM 55.4 °F 48.2 °F 77% 29.50 in 6.2 mi SSE 21.9 mph 36.8 mph N/A Rain , Thunderstorm Light Thunderstorms and Rain
1:30 AM 51.8 °F 51.8 °F 100% 29.47 in 6.2 mi SSE 23.0 mph 40.3 mph N/A Rain Rain
2:00 AM 51.8 °F 51.8 °F 100% 29.44 in 6.2 mi SE 21.9 mph - N/A Rain Light Rain
2:30 AM 51.8 °F 51.8 °F 100% 29.42 in 6.2 mi ESE 26.5 mph 38.0 mph N/A Rain , Thunderstorm Rain
3:00 AM 53.6 °F 53.6 °F 100% 29.42 in 6.2 mi SSE 23.0 mph 35.7 mph N/A   Mostly Cloudy
3:30 AM 53.6 °F 53.6 °F 100% 29.39 in 6.2 mi SSE 19.6 mph 33.4 mph N/A Rain Light Rain
4:00 AM 54 °F 54 °F 100% 29.39 in 6 mi South 17.9 mph - -  
4:00 AM 55.4 °F 53.6 °F 94% 29.39 in 6.2 mi South 16.1 mph - N/A   Mostly Cloudy
4:30 AM 53.6 °F 51.8 °F 94% 29.39 in 6.2 mi SSE 17.3 mph - N/A Rain Light Rain
5:00 AM 55.4 °F 53.6 °F 94% 29.36 in 6.2 mi South 15.0 mph 27.6 mph N/A   Mostly Cloudy
5:30 AM 55.4 °F 51.8 °F 88% 29.36 in 6.2 mi South 16.1 mph - N/A   Mostly Cloudy
6:00 AM 55.4 °F 48.2 °F 77% 29.39 in 6.2 mi South 15.0 mph 26.5 mph N/A   Mostly Cloudy
6:30 AM 55.4 °F 48.2 °F 77% 29.39 in 6.2 mi South 12.7 mph - N/A   Mostly Cloudy
7:00 AM 54 °F 46 °F 66% 29.41 in 12 mi South 11.2 mph - -   Partly Cloudy
7:00 AM 55.4 °F 46.4 °F 72% 29.42 in 6.2 mi South 11.5 mph - N/A   Mostly Cloudy
7:30 AM 55.4 °F 46.4 °F 72% 29.42 in 6.2 mi South 11.5 mph - N/A   Mostly Cloudy
8:00 AM 55.4 °F 46.4 °F 72% 29.39 in 6.2 mi South 13.8 mph - N/A   Mostly Cloudy
8:30 AM 55.4 °F 46.4 °F 72% 29.39 in 6.2 mi SSE 13.8 mph - N/A   Mostly Cloudy
9:00 AM 55.4 °F 44.6 °F 67% 29.39 in 6.2 mi South 13.8 mph - N/A   Mostly Cloudy
9:30 AM 55.4 °F 44.6 °F 67% 29.42 in 6.2 mi South 16.1 mph 29.9 mph N/A   Mostly Cloudy
10:00 AM 54 °F 40 °F 49% 29.42 in 16 mi South 13.4 mph - -   Overcast
10:00 AM 53.6 °F 41.0 °F 62% 29.42 in 6.2 mi South 12.7 mph - N/A   Mostly Cloudy
10:30 AM 51.8 °F 44.6 °F 76% 29.39 in 5.6 mi SSW 15.0 mph - N/A Rain , Thunderstorm Thunderstorms and Rain
11:00 AM 51.8 °F 46.4 °F 82% 29.42 in 6.2 mi SW 16.1 mph - N/A Rain , Thunderstorm Light Thunderstorms and Rain
11:30 AM 51.8 °F 41.0 °F 67% 29.42 in 6.2 mi SW 13.8 mph - N/A   Mostly Cloudy
12:00 PM 51.8 °F 39.2 °F 62% 29.44 in 6.2 mi SW 16.1 mph - N/A   Mostly Cloudy
12:30 PM 51.8 °F 39.2 °F 62% 29.44 in 6.2 mi SW 15.0 mph 26.5 mph N/A   Mostly Cloudy
1:00 PM 52 °F 38 °F 48% 29.46 in 12 mi SSW 11.2 mph - -   Partly Cloudy
1:00 PM 51.8 °F 39.2 °F 62% 29.44 in 6.2 mi SSW 11.5 mph - N/A   Mostly Cloudy
1:30 PM 48.2 °F 37.4 °F 66% 29.44 in 6.2 mi SW 18.4 mph 32.2 mph N/A Rain , Thunderstorm Light Thunderstorms and Rain
2:00 PM 50.0 °F 39.2 °F 66% 29.44 in 6.2 mi SSW 9.2 mph - N/A   Mostly Cloudy
2:30 PM 51.8 °F 39.2 °F 62% 29.44 in 6.2 mi SSW 10.4 mph - N/A   Scattered Clouds
3:00 PM 51.8 °F 35.6 °F 54% 29.44 in 6.2 mi SW 11.5 mph - N/A   Mostly Cloudy
3:30 PM 53.6 °F 33.8 °F 47% 29.44 in 6.2 mi SSW 15.0 mph - N/A   Scattered Clouds
4:00 PM 52 °F 33 °F 36% 29.47 in 19 mi SSW 11.2 mph - -   Partly Cloudy
4:00 PM 51.8 °F 33.8 °F 50% 29.44 in 6.2 mi SSW 9.2 mph - N/A   Partly Cloudy
4:30 PM 51.8 °F 33.8 °F 50% 29.44 in 6.2 mi South 8.1 mph - N/A   Scattered Clouds
5:30 PM 51.8 °F 33.8 °F 50% 29.44 in 6.2 mi South 10.4 mph - N/A   Partly Cloudy
6:00 PM 51.8 °F 35.6 °F 54% 29.47 in 6.2 mi South 9.2 mph - N/A   Partly Cloudy
6:30 PM 51.8 °F 32.0 °F 47% 29.47 in 6.2 mi SSW 18.4 mph - N/A   Mostly Cloudy
7:00 PM 51 °F 36 °F 44% 29.50 in 12 mi SSW 11.2 mph - - Thunderstorm Light Thunderstorm
7:00 PM 51.8 °F 35.6 °F 54% 29.47 in 6.2 mi SSW 10.4 mph - N/A   Scattered Clouds
7:30 PM 51.8 °F 35.6 °F 54% 29.50 in 6.2 mi South 10.4 mph - N/A   Scattered Clouds
8:00 PM 51.8 °F 33.8 °F 50% 29.50 in 6.2 mi SSW 15.0 mph - N/A   Scattered Clouds
8:30 PM 50.0 °F 35.6 °F 58% 29.50 in 6.2 mi South 18.4 mph 31.1 mph N/A Rain , Thunderstorm Rain Showers
9:00 PM 48.2 °F 35.6 °F 62% 29.50 in 6.2 mi SSW 10.4 mph - N/A Rain , Thunderstorm Light Rain
9:30 PM 48.2 °F 35.6 °F 62% 29.50 in 6.2 mi Variable 6.9 mph - N/A   Overcast
10:00 PM 50 °F 35 °F 45% 29.54 in 19 mi SSW 13.4 mph - - Thunderstorm Light Thunderstorm
10:00 PM 50.0 °F 35.6 °F 58% 29.53 in 6.2 mi SSW 13.8 mph - N/A   Mostly Cloudy
10:30 PM 50.0 °F 33.8 °F 54% 29.53 in 6.2 mi South 10.4 mph - N/A   Scattered Clouds
11:00 PM 50.0 °F 35.6 °F 58% 29.53 in 6.2 mi South 11.5 mph - N/A   Scattered Clouds
11:30 PM 50.0 °F 35.6 °F 58% 29.53 in 6.2 mi South 13.8 mph - N/A   Mostly Cloudy